Aeroporto :
LOGIN :

Iscrizione | Disclaimer

   EN    FR    IT 

 










Sommario :    VFR   VFR Marginale   IFR   IFR Intensivo   IFR Molto Intensivo
Visibilità : 
Base nubi : 
>= 8 km
>= 3000ft
5 / 8 km
1000 / 3000 ft
1500m / 5 km
500 / 1000 ft
800 / 1500m
200 / 500 ft
< 800m
< 200 ft
Simboli :   Temporali  Nebbia  Neve Forte  Precipitazioni Forti  Vento > 20 kt
SIGMETs :   Varie  Temporali  Ghiacco  Turbolenza  Onda orograficha  Ceneri Vulcaniche







- Altitudine del aeroporto : 1043 ft
- Codice IATA : SLD


LZSL - Sliac

ULTIMO METAR :
  • 262030Z 03003KT CAVOK 16/12 Q1014

METARs OBSOLETI :
  • 262000Z VRB02KT CAVOK 16/13 Q1014
  • 261930Z VRB01KT CAVOK 16/13 Q1014
  • 261900Z 33003KT CAVOK 18/13 Q1014
  • 261830Z VRB02KT CAVOK 19/12 Q1014
  • 261800Z 22003KT CAVOK 21/13 Q1014

TAF TAF LZSL
Valido dal 26 a 21 ore il 27 a 06 ore UTC


262000Z 2621/2706 VRB02KT CAVOK
TEMPO 2702/2706 34005KT 9999 FEW020 SCT080
Nessun NOTAM noto per questo aeroporto.



MetMap, La meteo Aeronautica in un colpo d'occhio ! - Copyright ORBIFLY Dicembre 2007 - Disclaimer

ORBIFLY MET'MAP TEAM :

Programmazione e sviluppo : Alexandra Zaïnal
Concezione e sviluppo : Baudouin d'Aumeries
Co-Programmazione e sviluppo : Marc-Olivier Méhu
Supporto tecnico e logistico : Manuel Goepfert
Aiuto per la traduzione : Arnaldo La Scala

Contatto : metmap@orbifly.com




FONTI E CREDITI :

   NOAA